Stations météo

réclame
Mon MeteoGroup
Florennes, Belgique (6456): Température de l'air & dewpoint: 14.07.2018 22:00:00 - 20.07.2018 22:00:00 (CEST)Florennes, Belgique (6456): Vitesse du vent & gusts: 14.07.2018 22:00:00 - 20.07.2018 22:00:00 (CEST)Florennes, Belgique (6456): Direction du vent: 14.07.2018 22:00:00 - 20.07.2018 22:00:00 (CEST)Florennes, Belgique (6456): reduced air pressure: 14.07.2018 22:00:00 - 20.07.2018 22:00:00 (CEST)Florennes, Belgique (6456): visibility: 14.07.2018 22:00:00 - 20.07.2018 22:00:00 (CEST)
Date & Time tt [°C] td [°C] ff [km/h] ff [knt] fx [km/h] fx [knt] dd ppp [hPa] vv [km]
20.07.2018 22:00:00 18,2 11,0 - - 0 0 - 1012,7 15
20.07.2018 21:00:00 19,5 11,1 - - 0 0 - 1012,3 20
20.07.2018 20:00:00 20,1 10,8 - - - - - 1012,5 20
20.07.2018 19:00:00 20,0 11,1 - - 0 0 - 1012,7 20
20.07.2018 18:00:00 20,1 11,1 - - 0 0 - 1013,0 -
20.07.2018 17:00:00 19,2 13,4 - - - - - 1013,7 -
20.07.2018 16:00:00 19,3 13,7 14 8 0 0 W 1013,7 12
20.07.2018 15:00:00 22,8 11,1 7 4 0 0 NNW 1013,7 20
20.07.2018 14:00:00 24,2 9,2 7 4 - - NNW 1013,5 30
20.07.2018 13:00:00 24,7 7,7 7 4 0 0 E 1013,6 30
20.07.2018 12:00:00 24,7 10,5 7 4 0 0 NNE 1013,7 30
20.07.2018 11:00:00 23,6 10,8 11 6 - - NE 1014,1 30
20.07.2018 10:00:00 22,4 9,6 11 6 0 0 NE 1014,2 30
20.07.2018 09:00:00 19,6 8,9 11 6 0 0 NE 1014,6 30
20.07.2018 08:00:00 16,5 9,8 7 4 - - NE 1015,1 30
20.07.2018 07:00:00 16,6 8,3 4 2 0 0 N 1015,2 30
20.07.2018 06:00:00 14,3 7,8 4 2 0 0 N 1015,6 30
20.07.2018 05:00:00 15,2 7,9 4 2 - - - 1015,7 20
20.07.2018 04:00:00 15,4 8,0 - - 0 0 - 1016,2 20
20.07.2018 03:00:00 16,0 8,2 - - 0 0 - 1016,6 20
20.07.2018 02:00:00 16,6 8,5 - - - - - 1016,7 20
20.07.2018 01:00:00 16,8 8,9 - - 0 0 - 1017,2 20
20.07.2018 00:00:00 17,6 9,9 - - 0 0 - 1017,2 20
19.07.2018 23:00:00 19,3 10,5 - - - - - 1017,0 20
19.07.2018 22:00:00 21,0 9,7 - - 0 0 - 1016,5 20
19.07.2018 21:00:00 22,7 10,0 - - 0 0 - 1016,2 20
19.07.2018 20:00:00 24,6 9,2 - - - - - 1015,8 20
19.07.2018 19:00:00 25,7 7,9 - - 0 0 - 1015,6 20
19.07.2018 18:00:00 26,2 7,2 - - 0 0 - 1016,0 20
19.07.2018 17:00:00 25,9 8,3 11 6 - - NNE 1016,5 25
19.07.2018 16:00:00 25,9 7,4 7 4 0 0 NE 1016,8 25
19.07.2018 15:00:00 24,9 8,4 4 2 0 0 N 1017,2 25
19.07.2018 14:00:00 24,8 8,8 7 4 - - NE 1017,6 25
19.07.2018 13:00:00 24,0 8,6 4 2 0 0 N 1017,8 25
19.07.2018 12:00:00 22,8 8,2 7 4 0 0 N 1018,2 25
19.07.2018 11:00:00 22,4 10,4 4 2 - - N 1018,3 25
19.07.2018 10:00:00 21,3 11,6 4 2 0 0 N 1018,6 20
19.07.2018 09:00:00 19,5 12,3 4 2 0 0 N 1018,7 20
19.07.2018 08:00:00 18,0 12,2 4 2 - - N 1018,7 20
19.07.2018 07:00:00 15,4 11,2 7 4 0 0 E 1019,0 15
19.07.2018 06:00:00 14,9 10,8 4 2 0 0 N 1019,0 20
19.07.2018 05:00:00 14,8 10,6 8 4 - - E 1019,2 20
19.07.2018 04:00:00 15,1 10,7 - - 0 0 - 1019,5 20
19.07.2018 03:00:00 15,6 10,8 - - 0 0 - 1019,7 20
19.07.2018 02:00:00 15,9 11,0 - - - - - 1019,7 20
19.07.2018 01:00:00 15,9 11,0 - - 0 0 - 1019,7 20
19.07.2018 00:00:00 16,2 10,7 - - 0 0 - 1019,2 20
18.07.2018 23:00:00 17,7 9,7 - - - - - 1018,7 20
18.07.2018 22:00:00 19,6 8,9 - - 0 0 - 1018,2 20
18.07.2018 21:00:00 20,6 9,9 - - 0 0 - 1017,8 20
18.07.2018 20:00:00 23,3 8,7 - - - - - 1017,5 20
18.07.2018 19:00:00 22,8 8,1 - - 0 0 - 1017,3 20
18.07.2018 18:00:00 24,4 8,1 - - 0 0 - 1017,3 20
18.07.2018 17:00:00 23,1 8,1 4 2 - - N 1017,8 20
18.07.2018 16:00:00 24,1 8,0 7 4 0 0 NW 1018,0 20
18.07.2018 15:00:00 23,6 7,9 7 4 0 0 NW 1018,2 20
18.07.2018 14:00:00 23,0 8,0 7 4 - - W 1018,6 20
18.07.2018 13:00:00 21,6 7,5 4 2 0 0 N 1018,7 20
18.07.2018 12:00:00 22,0 7,8 7 4 0 0 NW 1018,7 20
18.07.2018 11:00:00 20,9 8,7 7 4 - - W 1019,2 20
18.07.2018 10:00:00 19,1 10,7 4 2 0 0 N 1019,3 20
18.07.2018 09:00:00 16,1 10,0 4 2 0 0 N 1019,7 20
18.07.2018 08:00:00 14,6 9,5 4 2 - - N 1019,6 20
18.07.2018 07:00:00 14,3 9,0 8 4 0 0 W 1019,2 10
18.07.2018 06:00:00 13,5 8,5 4 2 0 0 N 1019,2 20
18.07.2018 05:00:00 13,5 8,5 - - - - - 1019,2 20
18.07.2018 04:00:00 14,1 8,5 - - 0 0 - 1019,2 20
18.07.2018 03:00:00 12,8 8,4 - - 0 0 - 1019,5 20
18.07.2018 02:00:00 15,2 8,1 - - - - - 1019,2 20
18.07.2018 01:00:00 16,0 8,3 - - 0 0 - 1019,1 20
18.07.2018 00:00:00 16,4 8,3 - - 0 0 - 1019,1 20
17.07.2018 23:00:00 17,3 8,2 - - - - - 1018,7 20
17.07.2018 22:00:00 19,2 8,1 - - 0 0 - 1018,0 20
17.07.2018 21:00:00 21,0 8,4 - - 0 0 - 1017,3 20
17.07.2018 20:00:00 22,2 8,8 - - - - - 1016,7 20
17.07.2018 19:00:00 22,6 8,9 - - 0 0 - 1016,7 20
17.07.2018 18:00:00 22,7 9,3 - - 0 0 - 1016,5 20
17.07.2018 17:00:00 24,4 10,8 14 8 - - W 1016,2 20
17.07.2018 16:00:00 23,1 11,6 14 8 0 0 W 1016,2 20
17.07.2018 15:00:00 23,3 12,6 14 8 0 0 W 1016,2 20
17.07.2018 14:00:00 22,9 13,2 14 8 - - W 1016,5 20
17.07.2018 13:00:00 23,6 13,9 14 8 0 0 W 1016,2 20
17.07.2018 12:00:00 22,3 12,1 11 6 0 0 WSW 1016,1 20
17.07.2018 11:00:00 21,3 10,7 11 6 - - WSW 1016,1 20
17.07.2018 10:00:00 20,2 11,1 11 6 0 0 WSW 1016,1 20
17.07.2018 09:00:00 18,3 10,7 11 6 0 0 W 1016,1 20
17.07.2018 08:00:00 17,4 9,9 7 4 - - W 1015,7 20
17.07.2018 07:00:00 16,5 9,7 4 2 0 0 N 1015,5 20
17.07.2018 06:00:00 16,0 10,3 4 2 0 0 N 1015,2 20
17.07.2018 05:00:00 17,1 11,3 4 2 - - N 1014,8 20
17.07.2018 04:00:00 17,3 11,9 - - 0 0 - 1014,7 20
17.07.2018 03:00:00 18,0 12,9 - - 0 0 - 1014,7 20
17.07.2018 02:00:00 18,7 12,5 - - - - - 1014,7 10
17.07.2018 01:00:00 17,5 12,1 - - 0 0 - 1014,7 6
17.07.2018 00:00:00 19,7 12,3 - - 0 0 - 1014,2 9
16.07.2018 23:00:00 21,0 11,8 - - - - - 1013,7 20
16.07.2018 22:00:00 21,6 11,6 - - 0 0 - 1013,2 20
16.07.2018 21:00:00 21,9 11,9 - - 0 0 - 1012,7 20
16.07.2018 20:00:00 23,5 11,3 - - - - - 1012,2 20
16.07.2018 19:00:00 24,1 11,0 - - 0 0 - 1011,7 20
16.07.2018 18:00:00 27,7 4,3 7 4 0 0 NNE 1011,2 20
16.07.2018 17:00:00 28,4 3,8 7 4 - - NNE 1011,2 20
16.07.2018 16:00:00 28,1 5,2 7 4 0 0 NNE 1011,7 20
16.07.2018 15:00:00 27,6 6,8 9 5 0 0 ESE 1012,0 10
16.07.2018 14:00:00 27,6 8,0 7 4 - - ESE 1012,2 20
16.07.2018 13:00:00 26,6 7,1 7 4 0 0 ESE 1012,7 20
16.07.2018 12:00:00 25,8 9,1 7 4 0 0 ESE 1013,2 20
16.07.2018 11:00:00 25,2 9,7 7 4 - - E 1013,2 20
16.07.2018 10:00:00 23,9 13,5 7 4 0 0 E 1013,3 20
16.07.2018 09:00:00 21,2 14,1 7 4 0 0 E 1013,8 20
16.07.2018 08:00:00 18,4 13,8 7 4 - - E 1014,1 20
16.07.2018 07:00:00 17,9 13,2 7 4 0 0 E 1014,1 20
16.07.2018 06:00:00 14,6 10,7 - - 0 0 - 1014,5 20
16.07.2018 05:00:00 15,5 10,5 - - - - - 1014,3 20
16.07.2018 04:00:00 17,0 9,9 - - 0 0 - 1014,2 20
16.07.2018 03:00:00 18,3 8,9 - - 0 0 - 1014,2 20
16.07.2018 02:00:00 18,7 9,1 - - - - - 1014,7 20
16.07.2018 01:00:00 20,3 8,3 - - 0 0 - 1014,7 20
16.07.2018 00:00:00 20,9 8,5 - - 0 0 - 1014,7 20
15.07.2018 23:00:00 21,2 8,3 - - - - - 1014,7 20
15.07.2018 22:00:00 21,6 8,3 - - 0 0 - 1014,3 20
15.07.2018 21:00:00 23,7 8,7 - - 0 0 - 1013,7 20
15.07.2018 20:00:00 26,0 7,8 - - - - - 1013,2 20
15.07.2018 19:00:00 26,8 7,7 - - 0 0 - 1013,1 20
15.07.2018 18:00:00 27,1 8,0 - - 0 0 - 1013,2 20
15.07.2018 17:00:00 27,7 9,1 - - - - - 1013,5 20
15.07.2018 16:00:00 27,4 7,9 - - 0 0 - 1013,8 20
15.07.2018 15:00:00 26,6 7,2 - - 0 0 - 1014,5 20
15.07.2018 14:00:00 26,5 8,7 - - - - - 1015,2 20
15.07.2018 13:00:00 25,6 9,1 - - 0 0 - 1015,7 20
15.07.2018 12:00:00 24,5 10,0 - - 0 0 - 1016,2 20
15.07.2018 11:00:00 24,1 10,1 - - - - - 1016,5 20
15.07.2018 10:00:00 23,2 12,0 - - 0 0 - 1016,7 5
15.07.2018 09:00:00 20,4 12,5 - - 0 0 - 1017,0 20
15.07.2018 08:00:00 18,0 11,7 - - - - - 1017,2 20
15.07.2018 07:00:00 16,5 10,2 - - 0 0 - 1017,2 20
15.07.2018 06:00:00 15,3 9,7 - - 0 0 - 1017,5 20
15.07.2018 05:00:00 16,3 9,8 - - - - - 1017,7 20
15.07.2018 04:00:00 16,6 9,8 - - 0 0 - 1017,7 20
15.07.2018 03:00:00 17,2 10,1 - - 0 0 - 1018,1 20
15.07.2018 02:00:00 17,7 10,1 - - - - - 1018,2 20
15.07.2018 01:00:00 18,2 9,9 - - 0 0 - 1018,3 20
15.07.2018 00:00:00 19,2 9,6 - - 0 0 - 1018,2 20
14.07.2018 23:00:00 19,7 9,7 - - - - - 1018,1 20
14.07.2018 22:00:00 20,1 10,2 - - 0 0 - 1017,7 20

tt = Température de l'air
td = dewpoint
ff = Vitesse du vent
fx = gusts
dd = Direction du vent
ppp = reduced air pressure
vv = visibility

stations d'obs. à proximité